Regional Weather Roundup
Issued by NWS Albany, NY

Home | Current Version | Previous Version | Graphics & Text | Print | Product List | Glossary Off
Versions: 1 2 3 4 5 6 7 8 9 10 11 12 13 14 15 16 17 18 19 20 21 22 23 24 25 26 27 28 29 30 31 32 33 34 35 36 37 38 39 40 41 42 43 44 45 46 47 48 49 50

000
ASUS41 KALY 272310
RWRALY

NEW YORK STATE HOURLY WEATHER ROUNDUP
NATIONAL WEATHER SERVICE ALBANY NY
600 PM EST TUE JAN 27 2015

NOTE: "FAIR" INDICATES FEW OR NO CLOUDS BELOW 12,000 FEET WITH NO
SIGNIFICANT WEATHER AND/OR NO OBSTRUCTIONS TO VISIBILITY.

NYZ032-033-038>043-046>054-057>066-NYZ062>081-280000-
EAST


CITY           SKY/WX    TMP DP  RH WIND       PRES   REMARKS
ALBANY         FLURRIES  12   0  58 N10       29.84R WCI  -1
GLENS FALLS    CLOUDY    13   0  56 NE13G22   29.85R WCI  -2
POUGHKEEPSIE   CLOUDY    18   9  68 N13G21    29.74R WCI   5
NEWBURGH       CLOUDY    19  14  79 NE12      29.71R WCI   7
MONTGOMERY     CLOUDY    20  12  71 NE9       29.71R WCI   9
WHITE PLAINS   CLOUDY    21  12  68 N20G28    29.67R WCI   6
ISLIP          CLOUDY    23  12  62 N20G33    29.64R WCI   8
NEW YORK CITY  CLOUDY    26  15  63 N15       29.70R WCI  14
CENTRAL PARK   CLOUDY    26  15  63 VRB5      29.72R WCI  20
$$

NYZ005>009-017-018-044>046-055-056-280000-
CENTRAL


CITY           SKY/WX    TMP DP  RH WIND       PRES   REMARKS
FULTON         CLEAR     14  -2  49 N17       30.02R WCI  -3
SYRACUSE       MOCLDY    11  -3  53 NW14      30.00R WCI  -5
ROME           MOCLDY    13  -1  54 NW14      29.96R WCI  -2
ELMIRA         PTCLDY    12   3  67 MISG      29.96R
BINGHAMTON     PTCLDY     9   3  77 NW14      29.81R WCI  -7
MONTICELLO     MOCLDY    14   9  79 NW17G26   29.70R WCI  -3
$$

NYZ026>034-041>043-280000-
NORTH


CITY           SKY/WX    TMP DP  RH WIND       PRES   REMARKS
WATERTOWN      CLEAR     13  -5  44 NE7       30.05R WCI   3
FORT DRUM      NOT AVBL
MASSENA        MOCLDY    10  -4  53 CALM      30.07S
SARANAC LAKE   FLURRIES   5  -6  60 N9        29.84R WCI  -9
PLATTSBURGH    LGT SNOW  10   2  69 N23G31    29.98S WCI -10
$$

NYZ001>004-010>016-019>021-280000-
WEST


CITY           SKY/WX    TMP DP  RH WIND       PRES   REMARKS
NIAGARA FALLS  PTCLDY    13   3  64 CALM      30.09R
BUFFALO        MOCLDY    15   3  59 CALM      30.08R
DUNKIRK        CLOUDY    17   9  70 NW9       30.10R WCI   6
JAMESTOWN      CLOUDY    12   9  85 N9        29.98R WCI   0
WELLSVILLE     MOCLDY     9   3  77 NW14G21   29.93R WCI  -7
ROCHESTER      MOCLDY    17   2  51 NW6       30.07R WCI   9
PENN YAN       PTCLDY    11   1  64 NW9       30.00R WCI  -2
$$

             KEY
       WCI = WIND CHILL INDEX
       VSB = VISIBILITY
       HX  = HEAT INDEX
$$



USA.gov is the U.S. government's official web portal to all federal, state and local government web resources and services.